Logansport, IN

9:46 PM EDT on April 30, 2017 (GMT -0400)
Logansport Municipal

Weather History for KGGP - January, 2014

Change the Weather History Date:

Saturday, January 18, 2014

  Actual Average Record
Temperature  
Mean Temperature 14 °F -  
Max Temperature 21 °F 29 °F 37 °F (2013)
Min Temperature 8 °F 12 °F 0 °F (2016)
Degree Days  
Heating Degree Days 50    
Moisture  
Dew Point 13 °F    
Average Humidity 85    
Maximum Humidity 93    
Minimum Humidity 68    
Precipitation  
Precipitation 0.00 in - - ()
Sea Level Pressure  
Sea Level Pressure 29.88 in    
Wind  
Wind Speed 10 mph (SSE)    
Max Wind Speed 15 mph    
Max Gust Speed 16 mph    
Visibility 7 miles    
Events Snow    
Averages and records for this station are not official NWS values.
T = Trace of Precipitation, MM = Missing Value Source: NWS Daily Summary

Daily Weather History Graph

Daily Weather History Graph

Search for Another Location

Airport or City:

Trip Planner

Search our weather history database for the weather conditions in past years. The results will help you decide how hot, cold, wet, or windy it might be!

Date:

Astronomy

Jan. 18, 2014 Rise Set
Actual Time 8:05 AM EST 5:46 PM EST
Civil Twilight 7:36 AM EST 6:16 PM EST
Nautical Twilight 7:02 AM EST 6:49 PM EST
Astronomical Twilight 6:29 AM EST 7:22 PM EST
Moon 8:28 PM EST (1/18) 9:04 AM EST (1/18)
Length of Visible Light 10h 40m
Length of Day
9h 40m
Waning Gibbous, 94% of the Moon is Illuminated
Jan 18
Waning Gibbous
Jan 24
Last Quarter
Jan 30
New
Feb 6
First Quarter
Feb 14
Full

Hourly Weather History & Observations

Time (EST) Temp. Windchill Dew Point Humidity Pressure Visibility Wind Dir Wind Speed Gust Speed Precip Events Conditions
12:15 AM 14.0 °F -0.8 °F 8.6 °F 79% 30.00 in 10.0 mi WSW 13.8 mph - N/A Snow Light Snow
12:35 AM 14.0 °F -0.2 °F 8.6 °F 79% 29.99 in 7.0 mi WSW 12.7 mph - N/A Snow Light Snow
12:55 AM 14.0 °F -0.2 °F 8.6 °F 79% 29.98 in 2.0 mi WSW 12.7 mph - N/A Snow Light Snow
1:15 AM 14.0 °F 1.2 °F 8.6 °F 79% 29.97 in 7.0 mi WSW 10.4 mph - N/A Snow Light Snow
1:35 AM 14.0 °F 1.2 °F 8.6 °F 79% 29.98 in 7.0 mi SW 10.4 mph - N/A Snow Light Snow
1:55 AM 14.0 °F 2.0 °F 8.6 °F 79% 29.98 in 10.0 mi SW 9.2 mph - N/A Snow Light Snow
2:15 AM 14.0 °F 0.5 °F 8.6 °F 79% 29.98 in 10.0 mi SW 11.5 mph - N/A Snow Light Snow
2:35 AM 12.2 °F 0.7 °F 6.8 °F 79% 29.98 in 7.0 mi SW 8.1 mph - N/A Snow Light Snow
2:55 AM 10.4 °F -0.4 °F 5.0 °F 79% 29.98 in 10.0 mi SW 6.9 mph - N/A   Scattered Clouds
3:15 AM 10.4 °F -0.4 °F 5.0 °F 79% 29.99 in 10.0 mi SW 6.9 mph - N/A   Clear
3:35 AM 12.2 °F 0.7 °F 8.6 °F 85% 29.98 in 10.0 mi SW 8.1 mph - N/A   Mostly Cloudy
3:55 AM 12.2 °F 1.7 °F 8.6 °F 85% 29.98 in 10.0 mi SSW 6.9 mph - N/A Snow Light Snow
4:15 AM 12.2 °F 1.7 °F 8.6 °F 85% 29.97 in 10.0 mi SSW 6.9 mph - N/A   Overcast
4:35 AM 14.0 °F 3.9 °F 10.4 °F 86% 29.96 in 10.0 mi South 6.9 mph - N/A   Overcast
4:55 AM 14.0 °F 2.9 °F 8.6 °F 79% 29.97 in 10.0 mi SW 8.1 mph - N/A   Overcast
5:15 AM 12.2 °F 0.7 °F 8.6 °F 85% 29.98 in 10.0 mi SW 8.1 mph - N/A Snow Light Snow
5:35 AM 14.0 °F 2.9 °F 10.4 °F 86% 29.98 in 10.0 mi SW 8.1 mph - N/A   Overcast
5:55 AM 14.0 °F 2.9 °F 10.4 °F 86% 29.97 in 10.0 mi SW 8.1 mph - N/A   Overcast
6:15 AM 14.0 °F 2.9 °F 10.4 °F 86% 29.96 in 10.0 mi SW 8.1 mph - N/A   Overcast
6:35 AM 12.2 °F 0.7 °F 8.6 °F 85% 29.96 in 10.0 mi SSW 8.1 mph - N/A   Overcast
6:55 AM 10.4 °F 0.8 °F 6.8 °F 85% 29.96 in 10.0 mi SSW 5.8 mph - N/A   Scattered Clouds
7:15 AM 8.6 °F -2.6 °F 5.0 °F 85% 29.95 in 10.0 mi South 6.9 mph - N/A   Scattered Clouds
7:35 AM 8.6 °F -2.6 °F 5.0 °F 85% 29.96 in 10.0 mi SSW 6.9 mph - N/A   Scattered Clouds
7:55 AM 8.6 °F -3.7 °F 5.0 °F 85% 29.95 in 10.0 mi South 8.1 mph - N/A   Clear
8:15 AM 8.6 °F -2.6 °F 5.0 °F 85% 29.94 in 10.0 mi South 6.9 mph - N/A   Clear
8:35 AM 8.6 °F -3.7 °F 5.0 °F 85% 29.94 in 10.0 mi South 8.1 mph - N/A   Clear
8:55 AM 10.4 °F -1.5 °F 6.8 °F 85% 29.94 in 10.0 mi South 8.1 mph - N/A   Clear
9:15 AM 12.2 °F 0.7 °F 8.6 °F 85% 29.94 in 10.0 mi South 8.1 mph - N/A   Clear
9:35 AM 12.2 °F 0.7 °F 8.6 °F 85% 29.94 in 10.0 mi South 8.1 mph - N/A   Clear
9:55 AM 14.0 °F 1.2 °F 10.4 °F 86% 29.94 in 10.0 mi South 10.4 mph - N/A   Clear
10:15 AM 14.0 °F 0.5 °F 10.4 °F 86% 29.94 in 10.0 mi South 11.5 mph - N/A   Scattered Clouds
10:35 AM 15.8 °F 2.7 °F 10.4 °F 79% 29.93 in 10.0 mi South 11.5 mph - N/A   Mostly Cloudy
10:55 AM 17.6 °F 5.0 °F 10.4 °F 73% 29.93 in 10.0 mi South 11.5 mph - N/A   Mostly Cloudy
11:15 AM 17.6 °F 4.3 °F 10.4 °F 73% 29.92 in 10.0 mi South 12.7 mph - N/A   Scattered Clouds
11:35 AM 17.6 °F 5.7 °F 10.4 °F 73% 29.90 in 10.0 mi South 10.4 mph - N/A   Mostly Cloudy
11:55 AM 17.6 °F 5.0 °F 10.4 °F 73% 29.89 in 10.0 mi South 11.5 mph - N/A   Overcast
12:15 PM 19.4 °F 8.6 °F 12.2 °F 74% 29.88 in 10.0 mi South 9.2 mph - N/A   Overcast
12:35 PM 19.4 °F 7.9 °F 12.2 °F 74% 29.86 in 10.0 mi SE 10.4 mph - N/A   Overcast
12:55 PM 19.4 °F 9.5 °F 12.2 °F 74% 29.86 in 10.0 mi South 8.1 mph - N/A   Overcast
1:15 PM 19.4 °F 7.2 °F 12.2 °F 74% 29.85 in 10.0 mi South 11.5 mph - N/A   Overcast
1:35 PM 21.2 °F 10.1 °F 12.2 °F 68% 29.84 in 10.0 mi South 10.4 mph - N/A   Overcast
1:55 PM 21.2 °F 9.5 °F 12.2 °F 68% 29.82 in 5.0 mi SSE 11.5 mph - N/A Snow Light Snow
2:15 PM 19.4 °F 6.6 °F 15.8 °F 86% 29.81 in 1.0 mi SSE 12.7 mph - N/A Snow Light Snow
2:35 PM 19.4 °F 6.0 °F 15.8 °F 86% 29.80 in 0.5 mi SE 13.8 mph - N/A Snow Light Snow
2:55 PM 19.4 °F 7.9 °F 17.6 °F 93% 29.79 in 0.5 mi SE 10.4 mph 16.1 mph N/A Snow Snow
3:15 PM 19.4 °F 5.5 °F 17.6 °F 93% 29.78 in 0.5 mi SE 15.0 mph - N/A Snow Light Snow
3:35 PM 19.4 °F 6.0 °F 17.6 °F 93% 29.76 in 0.2 mi ESE 13.8 mph - N/A Snow Snow
3:55 PM 19.4 °F 5.5 °F 17.6 °F 93% 29.77 in 0.2 mi ESE 15.0 mph - N/A Snow Snow
4:15 PM 19.4 °F 6.6 °F 17.6 °F 93% 29.77 in 0.2 mi ESE 12.7 mph - N/A Snow Heavy Snow
4:35 PM 19.4 °F 7.9 °F 17.6 °F 93% 29.78 in 0.8 mi SE 10.4 mph - N/A Snow Light Snow
4:55 PM 21.2 °F 9.5 °F 17.6 °F 86% 29.78 in 0.8 mi SE 11.5 mph - N/A Snow Light Snow
5:15 PM 21.2 °F 10.9 °F 17.6 °F 86% 29.78 in 1.0 mi SE 9.2 mph - N/A Snow Light Snow
5:35 PM 21.2 °F 10.1 °F 17.6 °F 86% 29.80 in 1.0 mi SE 10.4 mph - N/A Snow Light Snow
5:55 PM 21.2 °F 10.9 °F 17.6 °F 86% 29.80 in 0.8 mi ESE 9.2 mph - N/A Snow Light Snow
6:15 PM 21.2 °F 11.7 °F 19.4 °F 93% 29.80 in 1.5 mi East 8.1 mph - N/A Snow Light Snow
6:35 PM 21.2 °F 11.7 °F 19.4 °F 93% 29.80 in 1.2 mi East 8.1 mph - N/A Snow Light Snow
6:55 PM 21.2 °F 11.7 °F 19.4 °F 93% 29.80 in 1.5 mi East 8.1 mph - N/A Snow Light Snow
7:15 PM 21.2 °F 11.7 °F 19.4 °F 93% 29.80 in 3.0 mi East 8.1 mph - N/A Snow Light Snow
7:35 PM 21.2 °F 11.7 °F 19.4 °F 93% 29.80 in 3.0 mi East 8.1 mph - N/A Snow Light Snow
7:55 PM 21.2 °F 10.9 °F 19.4 °F 93% 29.80 in 4.0 mi East 9.2 mph - N/A Snow Light Snow
8:15 PM 21.2 °F 10.9 °F 19.4 °F 93% 29.79 in 3.0 mi East 9.2 mph - N/A Snow Light Snow
8:35 PM 21.2 °F 12.6 °F 19.4 °F 93% 29.79 in 2.0 mi ENE 6.9 mph - N/A Snow Light Snow
8:55 PM 21.2 °F 13.6 °F 19.4 °F 93% 29.79 in 2.5 mi ENE 5.8 mph - N/A Snow Light Snow
9:15 PM 21.2 °F 13.6 °F 17.6 °F 86% 29.79 in 3.0 mi ENE 5.8 mph - N/A Snow Light Snow
9:35 PM 21.2 °F 14.9 °F 17.6 °F 86% 29.78 in 5.0 mi NE 4.6 mph - N/A Snow Light Snow
9:55 PM 21.2 °F 14.9 °F 17.6 °F 86% 29.78 in 7.0 mi NE 4.6 mph - N/A Snow Light Snow
10:15 PM 21.2 °F 14.9 °F 17.6 °F 86% 29.79 in 10.0 mi NNE 4.6 mph - N/A   Overcast
10:35 PM 21.2 °F 14.9 °F 17.6 °F 86% 29.80 in 10.0 mi NE 4.6 mph - N/A   Overcast
10:55 PM 19.4 °F 14.3 °F 17.6 °F 93% 29.79 in 10.0 mi NNE 3.5 mph - N/A   Overcast
11:15 PM 15.8 °F 10.2 °F 14.0 °F 93% 29.78 in 10.0 mi NNE 3.5 mph - N/A   Overcast
11:35 PM 14.0 °F 8.2 °F 12.2 °F 93% 29.78 in 7.0 mi North 3.5 mph - N/A   Mostly Cloudy
11:55 PM 15.8 °F 10.2 °F 14.0 °F 93% 29.78 in 3.0 mi North 3.5 mph - N/A   Clear